User: anonymous   Login
Location: Pacheco
(37.9835°N, 122.0752°W)
Time: 21:37:30
(UTC+00:00)
Language:

YAOGAN 11 - Orbit

View from above orbital plane
View from above orbital plane
View from above satellite
View from above satellite

Ground track
Ground track

The orbit data is extracted from the following two-line orbital elements,

1 37165U 10047A   24170.48997949  .00001406  00000-0  19567-3 0  9999
2 37165  98.4346 349.3195 0037700  58.2315 302.2559 14.79087104740247
Epoch (UTC): 18 June 2024 11:45:34
Eccentricity: 0.0037700
inclination: 98.4346°
perigee height: 606 km
apogee height: 658 km
right ascension of ascending node: 349.3195°
argument of perigee: 58.2315°
revolutions per day: 14.79087104
mean anomaly at epoch: 302.2559°
orbit number at epoch: 74024

The dashed part of the orbit path shows where the satellite is in the earth's shadow,  

DLR